This is the latest recevied weather packets stored in our database for station/object HB9GFF-10. If no packets are shown the sender has not sent any weather packets the latest 10 day(s).
| Time | Temp. | Humidity | Pressure | Rain* | Wind** | Luminosity | Snow |
|---|---|---|---|---|---|---|---|
| 1777623109 | 22.78° C | 26% | 962 hPa | - | - | - | - |
| 1777623043 | 22.78° C | 30% | 962 hPa | - | - | - | - |
| 1777622978 | 22.22° C | 31% | 962 hPa | - | - | - | - |
| 1777622913 | 22.22° C | 28% | 962 hPa | - | - | - | - |
| 1777622847 | 21.67° C | 29% | 962 hPa | - | - | - | - |
| 1777622782 | 22.22° C | 29% | 962 hPa | - | - | - | - |
| 1777622716 | 21.11° C | 29% | 962 hPa | - | - | - | - |
| 1777622651 | 21.67° C | 28% | 962 hPa | - | - | - | - |
| 1777622586 | 22.22° C | 31% | 962 hPa | - | - | - | - |
| 1777622520 | 22.22° C | 33% | 962 hPa | - | - | - | - |
| 1777622455 | 22.22° C | 32% | 962 hPa | - | - | - | - |
| 1777622389 | 21.11° C | 32% | 962 hPa | - | - | - | - |
| 1777622324 | 21.67° C | 30% | 962 hPa | - | - | - | - |
| 1777622259 | 22.22° C | 33% | 962 hPa | - | - | - | - |
| 1777622193 | 23.33° C | 30% | 962 hPa | - | - | - | - |
| 1777622128 | 21.67° C | 33% | 962 hPa | - | - | - | - |
| 1777622062 | 21.11° C | 33% | 962 hPa | - | - | - | - |
| 1777621997 | 21.11° C | 32% | 962 hPa | - | - | - | - |
| 1777621932 | 20.56° C | 30% | 962 hPa | - | - | - | - |
| 1777621866 | 21.11° C | 33% | 962 hPa | - | - | - | - |
| 1777621801 | 21.11° C | 33% | 962 hPa | - | - | - | - |
| 1777621736 | 20° C | 33% | 962 hPa | - | - | - | - |
| 1777621670 | 20° C | 35% | 962 hPa | - | - | - | - |
| 1777621605 | 20° C | 32% | 962 hPa | - | - | - | - |
| 1777621539 | 20.56° C | 33% | 962 hPa | - | - | - | - |
* Rain since midnight (hover to see other rain measurements)
** Current wind speed in m/s (hover to see current wind gust speed)